Home   Weather   Roswell   Past weeks
Flag for USA

Past Weather in Roswell, Georgia, USA — Yesterday and Last 2 Weeks

Now
75 °F

Passing clouds.


Feels Like: 76 °F
Forecast: 82 / 70 °F
Wind: 6 mph from Southwest

Location: Fulton County Airport-Brown Field

Current Time: Jun 5, 2020 at 9:55:16 am

Latest Report: Jun 5, 2020 at 8:53 am


Visibility: 10 mi

Pressure: 29.98 "Hg

Humidity: 76%

Dew Point: 67 °F

Location of RoswellLocation

Past Weather in Roswell — Graph

°F

Roswell Temperature Yesterday

Maximum temperature yesterday: 87 °F (at 2:53 pm)
Minimum temperature yesterday: 70 °F (at 5:53 am)
Average temperature yesterday: 78 °F

High & Low Weather Summary for the Past Weeks

 TemperatureHumidityPressure
High87 °F (Jun 3, 4:53 pm)97% (May 23, 7:12 am)30.24 "Hg (May 23, 7:12 am)
Low56 °F (May 21, 7:53 am)37% (May 31, 5:53 pm)29.86 "Hg (Jun 4, 6:53 pm)
Average73 °F72%30.03 "Hg
* Reported May 21 7:53 am — Jun 5 7:53 am, Roswell. Weather by CustomWeather, © 2020

Note: Actual official high and low records may vary slightly from our data, if they occured in-between our weather recording intervals... More about our weather records

Roswell Weather History for the Previous 24 Hours

Scroll right to see more
 ConditionsComfort  
Time TempWeatherWind HumidityBarometerVisibility
7:53 am
Fri, Jun 5
72 °FSunny.7 mph81%29.96 "Hg10 mi
6:53 am70 °FSunny.5 mph84%29.95 "Hg10 mi
5:53 am71 °FClear.3 mph81%29.93 "Hg10 mi
4:53 am72 °FClear.6 mph78%29.92 "Hg10 mi
3:53 am73 °FPassing clouds.3 mph76%29.92 "Hg10 mi
2:53 am74 °FMostly cloudy.3 mph74%29.92 "Hg10 mi
1:53 am74 °FPartly cloudy.5 mph79%29.92 "Hg10 mi
12:53 am75 °FClear.5 mph79%29.93 "Hg10 mi
11:53 pm
Thu, Jun 4
75 °FClear.3 mph76%29.92 "Hg10 mi
10:53 pm79 °FClear.5 mph65%29.92 "Hg10 mi
9:53 pm78 °FClear.5 mph66%29.91 "Hg10 mi
8:53 pm80 °FPartly cloudy.7 mph62%29.89 "Hg10 mi
7:53 pm82 °FThundershowers. Partly sunny.15 mph56%29.87 "Hg10 mi
6:53 pm87 °FScattered clouds.8 mph46%29.86 "Hg10 mi
5:53 pm86 °FPassing clouds.8 mph48%29.86 "Hg10 mi
4:53 pm87 °FPassing clouds.8 mph45%29.88 "Hg10 mi
3:53 pm87 °FBroken clouds.8 mph43%29.88 "Hg10 mi
2:53 pm87 °FPassing clouds.6 mph45%29.90 "Hg10 mi
1:53 pm86 °FPassing clouds.5 mph48%29.93 "Hg10 mi
12:53 pm85 °FScattered clouds.5 mph53%29.96 "Hg10 mi
11:53 am82 °FScattered clouds.5 mph56%29.97 "Hg10 mi
10:53 am81 °FSunny.8 mph60%29.96 "Hg10 mi
9:53 am79 °FSunny.8 mph65%29.97 "Hg10 mi
Weather by CustomWeather, © 2020

See weather overview

Advertising